XE3JAR-13 Weather Reports


Display with metric or nautical units.
time (UTC)temp
F
wind
direction
speed
MPH
gust
MPH
rain 1hr
in
rain 24hr
in
rain mn
in
humidity
%
barometer
mb
20260504050650 77 180 0.0 0.0 0.00 0.27 0.00 99 1021.3
20260504050144 77 270 0.0 0.0 0.00 0.27 0.00 99 1021.3
20260504045647 77 135 0.0 0.0 0.00 0.27 0.00 99 1021.3
20260504045138 77 225 0.0 0.0 0.00 0.27 0.00 99 1021.3
20260504044635 77 225 0.0 0.0 0.00 0.27 0.00 99 1021.3
20260504044125 77 180 0.0 0.0 0.00 0.27 0.00 99 1021.3
20260504043616 77 293 0.0 0.0 0.00 0.27 0.00 99 1021.3
20260504043113 77 248 0.0 0.0 0.00 0.27 0.00 99 1021.3
20260504042609 75 180 0.0 0.0 0.00 0.27 0.00 99 1021.3
20260504042106 77 248 4.0 11.0 0.00 0.27 0.00 99 1021.3
20260504041558 77 248 0.0 0.0 0.00 0.27 0.00 99 1021.3
20260504041057 77 225 0.0 0.0 0.00 0.27 0.00 99 1021.3
20260504040555 75 68 0.0 0.0 0.00 0.27 0.00 99 1021.0
20260504040057 75 113 0.0 0.0 0.00 0.27 0.00 99 1021.0
20260504035548 75 225 7.0 11.0 0.00 0.27 0.00 99 1021.0
20260504035045 75 293 0.0 0.0 0.00 0.27 0.00 99 1020.7
20260504034547 75 225 0.0 11.0 0.00 0.27 0.00 99 1020.7
20260504034036 75 248 0.0 0.0 0.00 0.27 0.00 99 1021.0
20260504033525 77 180 0.0 0.0 0.00 0.26 0.00 99 1021.0
20260504033023 75 225 0.0 4.0 0.00 0.26 0.00 99 1021.0
20260504032516 77 135 0.0 11.0 0.00 0.26 0.00 99 1021.0
20260504032008 77 293 0.0 0.0 0.00 0.26 0.00 99 1021.0
20260504031506 77 225 0.0 11.0 0.00 0.26 0.00 99 1021.0
20260504031005 75 248 0.0 0.0 0.00 0.26 0.00 99 1021.0
20260504030500 75 90 0.0 13.0 0.00 0.26 0.00 99 1021.0
20260504025958 75 180 0.0 0.0 0.00 0.26 0.00 99 1021.0
20260504025459 77 293 0.0 0.0 0.00 0.26 0.00 99 1021.0
20260504024947 77 315 0.0 0.0 0.00 0.26 0.00 99 1020.7
20260504024450 77 68 11.0 11.0 0.00 0.26 0.00 99 1020.7
20260504023948 77 315 0.0 11.0 0.00 0.25 0.00 99 1020.7
20260504023455 77 293 0.0 0.0 0.00 0.25 0.00 99 1020.7
20260504022858 77 315 13.0 13.0 0.00 0.25 0.00 99 1020.7
20260504022355 77 293 7.0 11.0 0.00 0.25 0.00 99 1020.3
20260504021855 77 338 7.0 13.0 0.00 0.25 0.00 99 1020.3
20260504021341 77 225 7.0 22.0 0.00 0.25 0.00 99 1020.3
20260504020842 77 90 0.0 7.0 0.00 0.25 0.00 99 1020.3
20260504020339 77 293 0.0 13.0 0.00 0.24 0.00 99 1020.3
20260504015835 77 158 7.0 7.0 0.00 0.22 0.00 99 1020.3
20260504015332 77 293 4.0 11.0 0.00 0.21 0.00 99 1020.3
20260504014828 77 23 11.0 13.0 0.00 0.18 0.00 99 1020.3
20260504013818 77 0 0.0 25.0 0.00 0.18 0.00 99 1020.3
20260504013316 77 338 11.0 13.0 0.00 0.17 0.00 99 1020.3
20260504012811 77 225 0.0 13.0 0.00 0.14 0.00 99 1020.3
20260504012310 77 225 7.0 7.0 0.00 0.11 0.00 99 1020.0
20260504011803 77 225 11.0 11.0 0.00 0.08 0.00 99 1020.0
20260504011301 79 158 11.0 18.0 0.00 0.08 0.00 99 1020.0
20260504010255 79 113 4.0 18.0 0.00 0.08 0.00 99 1020.0
20260504005754 79 338 7.0 11.0 0.00 0.08 0.00 99 1019.6
20260504005249 79 90 7.0 13.0 0.00 0.08 0.00 99 1019.6
20260504004746 79 90 7.0 13.0 0.00 0.08 0.00 99 1019.6
20260504004246 79 225 7.0 7.0 0.00 0.08 0.00 99 1019.6
20260504003738 79 68 18.0 18.0 0.00 0.08 0.00 99 1019.6
20260504003233 79 203 7.0 13.0 0.00 0.08 0.00 99 1019.3
20260504002741 79 270 7.0 18.0 0.00 0.08 0.00 99 1019.3
20260503235535 79 225 11.0 13.0 0.00 0.08 0.00 99 1019.0
20260503235026 79 248 7.0 25.0 0.00 0.08 0.00 99 1019.0
20260503234525 79 315 11.0 22.0 0.00 0.08 0.00 99 1018.6
20260503234017 79 338 11.0 18.0 0.00 0.08 0.00 98 1018.6
20260503233518 81 248 22.0 22.0 0.00 0.08 0.00 98 1018.6
20260503233013 81 180 18.0 18.0 0.00 0.08 0.00 97 1018.6
20260503232511 81 158 7.0 22.0 0.00 0.08 0.00 97 1018.6
20260503232016 81 338 22.0 22.0 0.00 0.08 0.00 97 1018.6
20260503231508 81 338 18.0 29.0 0.00 0.08 0.00 97 1018.6
20260503231000 81 270 11.0 25.0 0.00 0.08 0.00 96 1018.6
20260503230455 81 248 11.0 22.0 0.00 0.08 0.00 96 1018.6
20260503225950 81 293 18.0 18.0 0.00 0.08 0.00 96 1018.6
20260503225439 81 270 13.0 29.0 0.00 0.08 0.00 96 1018.6
20260503224932 81 248 13.0 25.0 0.00 0.08 0.00 95 1018.6
20260503224430 82 293 11.0 22.0 0.00 0.08 0.00 95 1018.6
20260503223921 81 45 11.0 29.0 0.00 0.08 0.00 97 1018.6
20260503223416 81 270 7.0 13.0 0.00 0.08 0.00 97 1018.6
20260503222914 81 225 29.0 36.0 0.00 0.08 0.00 97 1018.6
20260503222415 82 0 22.0 25.0 0.00 0.08 0.00 95 1018.6
20260503221912 82 270 22.0 31.0 0.00 0.08 0.00 94 1018.6
20260503221407 82 293 11.0 18.0 0.00 0.08 0.00 93 1018.6
20260503220905 82 135 11.0 25.0 0.00 0.08 0.00 93 1019.0
20260503220355 82 248 7.0 22.0 0.00 0.08 0.00 93 1019.0
20260503215847 82 315 11.0 22.0 0.00 0.08 0.00 93 1018.6
20260503215344 82 0 18.0 18.0 0.00 0.08 0.00 92 1018.6
20260503214336 82 293 13.0 29.0 0.00 0.08 0.00 93 1019.0
20260503213836 82 315 13.0 25.0 0.00 0.08 0.00 92 1019.0
20260503213329 82 338 4.0 22.0 0.00 0.08 0.00 91 1019.0
20260503212821 82 270 11.0 22.0 0.00 0.08 0.00 91 1019.0
20260503212319 84 248 11.0 13.0 0.00 0.08 0.00 90 1019.0
20260503211820 82 203 11.0 29.0 0.00 0.08 0.00 90 1019.0
20260503211309 84 248 11.0 29.0 0.00 0.08 0.00 90 1019.0
20260503210806 84 270 18.0 22.0 0.00 0.08 0.00 90 1019.0
20260503210304 84 23 11.0 25.0 0.00 0.08 0.00 88 1019.0
20260503205741 84 248 22.0 22.0 0.00 0.08 0.00 87 1019.0
20260503204424 86 45 18.0 22.0 0.00 0.08 0.00 87 1019.3
20260503203922 88 270 7.0 25.0 0.00 0.08 0.00 86 1019.3
20260503203417 88 225 11.0 22.0 0.00 0.08 0.00 86 1019.3
20260503202909 88 270 22.0 29.0 0.00 0.08 0.00 86 1019.3
20260503202408 86 203 22.0 22.0 0.00 0.08 0.00 89 1019.6
20260503201352 84 293 13.0 43.0 0.00 0.08 0.00 91 1019.6
20260503200848 84 158 18.0 36.0 0.00 0.07 0.00 90 1019.6
20260503192717 91 248 7.0 7.0 0.00 0.07 0.00 80 1020.0
20260503191253 91 293 7.0 7.0 0.00 0.07 0.00 81 1020.3
20260503190752 88 270 22.0 22.0 0.00 0.07 0.00 86 1020.3
20260503190248 88 248 0.0 0.0 0.00 0.07 0.00 87 1020.3
20260503185935 90 248 0.0 0.0 0.00 0.07 0.00 86 1020.7
20260503185429 90 225 0.0 4.0 0.00 0.07 0.00 86 1020.7
20260503184936 90 203 4.0 4.0 0.00 0.07 0.00 87 1020.7
20260503184423 88 338 0.0 0.0 0.00 0.07 0.00 91 1021.0
20260503183921 84 158 0.0 0.0 0.00 0.07 0.00 93 1021.0
20260503183413 84 270 4.0 7.0 0.00 0.07 0.00 94 1021.0
20260503182915 84 248 0.0 0.0 0.00 0.07 0.00 94 1021.0
20260503182403 84 203 0.0 0.0 0.00 0.07 0.00 95 1021.3
20260503181900 82 180 0.0 4.0 0.00 0.07 0.00 96 1021.3
20260503181403 84 180 4.0 11.0 0.00 0.07 0.00 93 1021.3
20260503180851 84 248 0.0 0.0 0.00 0.07 0.00 92 1021.3
20260503180343 86 270 22.0 22.0 0.00 0.04 0.00 86 1021.3
20260503175844 88 158 7.0 18.0 0.00 0.03 0.00 83 1021.3
20260503175333 88 203 0.0 11.0 0.00 0.03 0.00 83 1021.3
20260503174832 88 158 7.0 7.0 0.00 0.03 0.00 85 1021.7
20260503174335 86 203 7.0 11.0 0.00 0.03 0.00 85 1021.7
20260503173842 86 338 13.0 18.0 0.00 0.03 0.00 86 1021.7
20260503172130 84 23 0.0 11.0 0.00 0.03 0.00 85 1021.7
20260503171318 86 225 11.0 18.0 0.00 0.03 0.00 84 1021.7
20260503170811 86 225 18.0 18.0 0.00 0.03 0.00 84 1021.7
20260503170309 86 23 4.0 11.0 0.00 0.03 0.00 84 1021.7
20260503150922 84 338 18.0 25.0 0.00 0.03 0.00 87 1021.3
20260503150419 84 293 7.0 13.0 0.00 0.03 0.00 88 1021.3
20260503131247 79 270 0.0 13.0 0.00 0.03 0.00 99 1019.3
20260503130744 79 180 0.0 7.0 0.00 0.03 0.00 99 1019.3
20260503130239 79 180 0.0 11.0 0.00 0.03 0.00 99 1019.3
20260503090457 81 225 0.0 0.0 0.00 0.02 0.00 99 1018.3
20260503081425 81 180 0.0 0.0 0.00 0.02 0.00 99 1018.3
20260503080920 81 248 0.0 0.0 0.00 0.02 0.00 99 1018.3
20260503080418 81 203 0.0 0.0 0.00 0.02 0.00 99 1018.3
20260503054857 82 270 7.0 11.0 0.00 0.00 0.00 94 1020.3
20260503054349 82 225 0.0 18.0 0.00 0.00 0.00 94 1020.3
20260503053847 82 293 11.0 13.0 0.00 0.00 0.00 94 1020.3
20260503053348 82 248 7.0 11.0 0.00 0.00 0.00 94 1020.3
20260503052838 82 293 11.0 22.0 0.00 0.00 0.00 94 1020.3